Location: Rounton
(54.4000°N, 1.3500°W)
Time: 19:19:27
(UTC+01:00)

S-56A Canister/Altair - Pass Details

Date: 11 September 2024
Orbit: 636 x 2487 km, 38.9° (Epoch: 06 October)

Event Time Altitude Azimuth Distance (km) Brightness Sun altitude
Rises 01:17:31 0° 262° (W) 4,540 11.4 -31.1°
Enters shadow 01:19:43 - 255° (WSW) 4,036 11.0 -31.0°
Reaches altitude 10° 01:20:45 10° 251° (WSW) 3,824 - -31.0°
Maximum altitude 01:29:05 28° 198° (SSW) 3,175 - -30.9°
Drops below altitude 10° 01:39:43 10° 147° (SSE) 4,941 - -30.6°
Sets 01:44:38 0° 138° (SE) 6,086 - -30.5°
